Flag for Lithuania Weather past 2 weeks in Vilnius, Lithuania

Now
61 °F

Sunny.


Feels Like: 61 °F
Forecast: 49 / 66 °F
Wind: 3 mph from North

Location: Vilnius Airport

Current Time: May 23, 2015 at 12:31:33 PM

Latest Report: May 23, 2015 at 11:50 AM


Visibility: 10 mi

Pressure: 30.09 "Hg

Humidity: 48%

Dew point: 41 °F

Location of VilniusLocation

Historic Weather in Vilnius — Graph

°F

Vilnius temperature yesterday

Maximum temperature yesterday: 59 °F (at 3:20 PM)
Minimum temperature yesterday: 45 °F (at 11:20 PM)
Average temperature yesterday: 52 °F

Past Weeks' High & Low Weather Summary

 TemperatureHumidityPressure
High68 °F (May 19, 6:20 PM)100% (May 9, 3:50 AM)30.30 "Hg (May 9, 3:50 AM)
Low30 °F (May 19, 5:50 AM)34% (May 9, 3:50 PM)29.68 "Hg (May 14, 5:20 PM)
Average50 °F75%29.97 "Hg
* Reported May 8 11:20 AM — May 23 11:20 AM, Vilnius, Weather by CustomWeather, © 2015

Note: Actual official high and low records may vary slightly from our data, if they occured in-between our weather recording intervals... More about our weather records

Advertising

Vilnius weather history for previous 24 hours

 ConditionsComfort  
Time TempWeatherWind HumidityBarometerVisibility
11:20 AM
Sat, May 23
63 °FPassing clouds.2 mph49%30.09 "HgN/A
10:50 AM61 °FSunny.3 mph42%30.09 "Hg10 mi
10:20 AM61 °FSunny.3 mph42%30.09 "Hg10 mi
9:50 AM57 °FPassing clouds.6 mph48%30.09 "HgN/A
9:20 AM57 °FPassing clouds.5 mph59%30.12 "HgN/A
8:50 AM55 °FPassing clouds.5 mph72%30.12 "HgN/A
8:20 AM52 °FClear.3 mph82%30.12 "Hg5 mi
7:50 AM48 °FClear.3 mph100%30.12 "Hg5 mi
7:20 AM46 °FClear.3 mph100%30.12 "Hg4 mi
6:20 AM37 °FSnow. Cloudy.2 mph100%30.12 "Hg1 mi
5:50 AM39 °FSnow. Fog.3 mph100%30.12 "Hg1 mi
5:20 AM37 °FSnow. Fog.3 mph100%30.12 "Hg2 mi
4:50 AM39 °FFog.1 mph100%30.15 "Hg1 mi
4:20 AM39 °FFog.No wind100%30.15 "Hg1 mi
3:50 AM39 °FFog.1 mph100%30.15 "Hg1 mi
3:20 AM39 °FFog.1 mph100%30.15 "Hg0 mi
2:50 AM39 °FSleet. Fog.1 mph100%30.15 "Hg1 mi
2:20 AM41 °FFog.1 mph100%30.15 "Hg0 mi
1:50 AM43 °FFog.No wind100%30.18 "Hg2 mi
1:20 AM45 °FFog.No wind100%30.18 "Hg2 mi
12:50 AM45 °FFog.No wind100%30.18 "Hg2 mi
12:20 AM45 °FFog.1 mph93%30.18 "Hg2 mi
11:50 PM
Fri, May 22
45 °FSnow. Overcast.No wind93%30.18 "Hg2 mi
11:20 PM45 °FFog.1 mph100%30.18 "Hg2 mi
10:50 PM46 °FFog.1 mph93%30.18 "Hg2 mi
10:20 PM48 °FSunny.1 mph87%30.18 "Hg10 mi
9:50 PM50 °FSunny.No wind82%30.18 "Hg10 mi
9:20 PM54 °FSunny.1 mph72%30.18 "Hg10 mi
8:50 PM55 °FSunny.1 mph63%30.18 "Hg10 mi
8:20 PM57 °FBroken clouds.1 mph59%30.18 "HgN/A
7:50 PM57 °FBroken clouds.2 mph67%30.18 "HgN/A
7:20 PM57 °FBroken clouds.3 mph59%30.18 "HgN/A
6:50 PM57 °FBroken clouds.5 mph59%30.18 "HgN/A
6:20 PM57 °FBroken clouds.5 mph63%30.18 "HgN/A
5:50 PM59 °FBroken clouds.6 mph63%30.18 "HgN/A
5:20 PM59 °FBroken clouds.5 mph59%30.21 "HgN/A
4:50 PM59 °FBroken clouds.6 mph59%30.21 "HgN/A
4:20 PM57 °FBroken clouds.5 mph63%30.21 "HgN/A
3:50 PM59 °FBroken clouds.8 mph63%30.21 "HgN/A
3:20 PM59 °FBroken clouds.6 mph59%30.21 "HgN/A
2:50 PM57 °FBroken clouds.7 mph72%30.24 "HgN/A
2:20 PM55 °FBroken clouds.6 mph72%30.24 "HgN/A
1:50 PM55 °FBroken clouds.6 mph72%30.24 "HgN/A
1:20 PM54 °FBroken clouds.7 mph82%30.24 "HgN/A
12:50 PM54 °FBroken clouds.6 mph82%30.24 "HgN/A
12:20 PM52 °FCloudy.6 mph88%30.24 "HgN/A
Weather by CustomWeather, © 2015

See weather overviewHow to use our weather pages